This demonstration page uses our WeatherBlox Daily Observations layout. Learn more.

Hourly Observations for January 19, 2015

Temp ( °F °C ) Dew Point ( °F °C ) Humidity (%) Winds ( mph kmh ) Pressure ( in mb ) Visibility ( mi km ) Precip ( " mm )
12:15 am 00:15 Clear 39 3.7 25 -4 58 58 SW 5 7 30.03 1017 10 16.0934 0 0
12:35 am 00:35 Clear 39 3.8 27 -2.7 63 63 WSW 6 9 30.03 1017 10 16.0934 0 0
12:55 am 00:55 Clear 39 3.9 27 -2.6 63 63 WSW 5 7 30.03 1017 10 16.0934 0 0
1:15 am 01:15 Clear 39 3.9 28 -2.3 64 64 WSW 8 13 30.03 1017 10 16.0934 0 0
1:35 am 01:35 Clear 39 3.7 28 -2 67 67 WSW 6 9 30 1016 10 16.0934 0 0
1:55 am 01:55 Clear 40 4.2 30 -1.2 68 68 WSW 10 17 30 1016 10 16.0934 0 0
2:15 am 02:15 Clear 38 3.5 29 -1.4 71 71 W 9 15 30 1016 10 16.0934 0 0
2:35 am 02:35 Clear 38 3.1 29 -1.5 72 72 W 9 15 30 1016 10 16.0934 0 0
2:55 am 02:55 Clear 37 2.8 29 -1.7 73 73 W 7 11 30 1016 10 16.0934 0 0
3:15 am 03:15 Clear 36 2.2 28 -2 74 74 W 7 11 30.03 1017 10 16.0934 0 0
3:35 am 03:35 Clear 35 1.7 29 -1.9 77 77 W 9 15 30.03 1017 10 16.0934 0 0
3:55 am 03:55 Clear 37 2.5 29 -1.7 74 74 W 8 13 29.97 1015 10 16.0934 0 0
4:15 am 04:15 Clear 36 2.3 29 -1.8 75 75 WNW 8 13 29.97 1015 10 16.0934 0 0
4:35 am 04:35 Clear 34 1 28 -2 81 81 W 10 17 30 1016 10 16.0934 0 0
4:55 am 04:55 Clear 37 2.5 29 -1.6 75 75 W 9 15 29.97 1015 10 16.0934 0 0
5:15 am 05:15 Clear 36 2.2 29 -1.7 76 76 W 10 17 29.97 1015 10 16.0934 0 0
5:35 am 05:35 Clear 37 2.6 29 -1.6 74 74 W 9 15 29.97 1015 10 16.0934 0 0
5:55 am 05:55 Clear 37 2.8 29 -1.5 74 74 W 13 20 29.97 1015 10 16.0934 0 0
6:15 am 06:15 Clear 38 3.1 29 -1.5 72 72 W 12 19 29.97 1015 10 16.0934 0 0
6:35 am 06:35 Clear 40 4.7 30 -1.1 66 66 W 14 22 29.97 1015 10 16.0934 0 0
6:55 am 06:55 Clear 40 4.5 30 -1.1 67 67 W 10 17 29.97 1015 10 16.0934 0 0
7:15 am 07:15 Clear 39 3.7 29 -1.5 69 69 WNW 10 17 30 1016 10 16.0934 0 0
7:35 am 07:35 Clear 37 2.6 29 -1.5 75 75 WNW 9 15 30 1016 10 16.0934 0 0
7:55 am 07:55 Clear 36 2.2 29 -1.5 77 77 NW 10 17 30.03 1017 10 16.0934 0 0
8:15 am 08:15 Sunny 36 2.2 30 -1.3 78 78 NW 10 17 30.03 1017 10 16.0934 0 0
8:35 am 08:35 Sunny 38 3.2 31 -0.6 76 76 NW 13 20 30 1016 10 16.0934 0 0
8:55 am 08:55 Sunny 39 4.1 32 -0.1 74 74 NNW 9 15 30 1016 10 16.0934 0 0
9:15 am 09:15 Sunny 42 5.4 32 0.2 69 69 NW 13 20 30.03 1017 10 16.0934 0 0
9:35 am 09:35 Sunny 43 6 32 0.2 67 67 NW 12 19 30 1016 10 16.0934 0 0
9:55 am 09:55 Sunny 44 6.9 32 0.1 62 62 NW 9 15 30.03 1017 10 16.0934 0 0
10:15 am 10:15 Sunny 45 7.1 32 0.2 62 62 NW 10 17 30.03 1017 10 16.0934 0 0
10:35 am 10:35 Sunny 46 7.8 32 0.2 59 59 NW 12 19 30.03 1017 10 16.0934 0 0
10:55 am 10:55 Sunny 48 9 33 0.4 55 55 NW 12 19 30.03 1017 10 16.0934 0 0
11:15 am 11:15 Sunny 49 9.6 33 0.3 53 53 NNW 10 17 30 1016 10 16.0934 0 0
11:35 am 11:35 Sunny 51 10.5 32 0.1 49 49 NNW 13 20 30 1016 10 16.0934 0 0
11:55 am 11:55 Sunny 52 11.1 32 0 47 47 NNW 9 15 30 1016 10 16.0934 0 0
12:15 pm 12:15 Sunny 54 12 31 -0.4 43 43 NNW 15 24 30 1016 10 16.0934 0 0
12:35 pm 12:35 Sunny 55 12.7 31 -0.6 40 40 NW 14 22 29.97 1015 10 16.0934 0 0
12:55 pm 12:55 Sunny 56 13.1 29 -1.9 36 36 NNW 16 26 29.97 1015 10 16.0934 0 0
1:15 pm 13:15 Sunny 56 13.3 29 -1.8 35 35 NW 14 22 29.97 1015 10 16.0934 0 0
1:35 pm 13:35 Sunny 56 13.5 29 -1.8 35 35 NNW 13 20 29.94 1014 10 16.0934 0 0
1:55 pm 13:55 Sunny 56 13.3 28 -2.5 34 34 N 14 22 29.94 1014 10 16.0934 0 0
2:15 pm 14:15 Partly Cloudy 56 13.5 28 -2.3 34 34 NW 12 19 29.94 1014 10 16.0934 0 0
2:35 pm 14:35 Partly Cloudy 56 13.2 28 -2.2 35 35 NW 10 17 29.94 1014 10 16.0934 0 0
2:55 pm 14:55 Sunny 57 13.7 28 -2.5 33 33 NNW 13 20 29.94 1014 10 16.0934 0 0
3:15 pm 15:15 Sunny 55 13 28 -2.2 35 35 NW 14 22 29.94 1014 10 16.0934 0 0
3:35 pm 15:35 Partly Cloudy 56 13.2 26 -3.1 32 32 NW 15 24 29.94 1014 10 16.0934 0 0
3:55 pm 15:55 Mostly Cloudy 55 12.9 28 -2 36 36 NW 13 20 29.97 1015 10 16.0934 0 0
4:15 pm 16:15 Partly Cloudy 54 12.2 29 -1.7 38 38 NW 13 20 30 1016 10 16.0934 0 0
4:35 pm 16:35 Sunny 53 11.6 29 -1.5 40 40 NW 9 15 30 1016 10 16.0934 0 0
4:55 pm 16:55 Sunny 50 10.1 29 -1.5 45 45 NW 8 13 30 1016 10 16.0934 0 0
5:15 pm 17:15 Sunny 47 8.6 28 -2 48 48 WNW 7 11 30.03 1017 10 16.0934 0 0
5:35 pm 17:35 Sunny 44 6.6 28 -2.3 53 53 NW 7 11 30.03 1017 10 16.0934 0 0
5:55 pm 17:55 Clear 43 5.9 27 -2.8 54 54 WNW 6 9 30.03 1017 10 16.0934 0 0
6:15 pm 18:15 Clear 41 5.2 27 -2.8 57 57 WNW 5 7 30.06 1018 10 16.0934 0 0
6:35 pm 18:35 Clear 39 4 27 -3 61 61 WNW 6 9 30.06 1018 10 16.0934 0 0
6:55 pm 18:55 Clear 38 3.2 26 -3.1 64 64 WNW 6 9 30.09 1019 10 16.0934 0 0
7:15 pm 19:15 Clear 36 2.3 26 -3.2 67 67 NW 5 7 30.12 1020 10 16.0934 0 0
7:35 pm 19:35 Clear 33 0.8 26 -3.6 73 73 NW 3 6 30.12 1020 10 16.0934 0 0
7:55 pm 19:55 Clear 34 1 26 -3.5 72 72 WNW 5 7 30.12 1020 10 16.0934 0 0
8:15 pm 20:15 Clear 34 1.2 25 -3.7 70 70 WNW 6 9 30.12 1020 10 16.0934 0 0
8:35 pm 20:35 Clear 34 1.3 25 -3.7 70 70 WNW 6 9 30.12 1020 10 16.0934 0 0
8:55 pm 20:55 Clear 34 0.9 25 -3.9 71 71 NW 6 9 30.12 1020 10 16.0934 0 0
9:15 pm 21:15 Clear 33 0.5 25 -3.8 73 73 NW 5 7 30.09 1019 10 16.0934 0 0
9:35 pm 21:35 Clear 34 1 26 -3.6 72 72 NW 6 9 30.09 1019 10 16.0934 0 0
9:55 pm 21:55 Clear 32 0 25 -3.9 75 75 WNW 6 9 30.09 1019 10 16.0934 0 0
10:15 pm 22:15 Clear 32 0 25 -4.1 74 74 WNW 6 9 30.12 1020 10 16.0934 0 0
10:35 pm 22:35 Clear 35 1.4 26 -3.4 71 71 WNW 6 9 30.12 1020 10 16.0934 0 0
10:55 pm 22:55 Clear 33 0.5 26 -3.6 74 74 W 5 7 30.12 1020 10 16.0934 0 0
11:15 pm 23:15 Clear 33 0.7 25 -3.8 72 72 W 6 9 30.12 1020 10 16.0934 0 0
11:35 pm 23:35 Clear 34 1 26 -3.4 73 73 WNW 8 13 30.12 1020 10 16.0934 0 0
11:55 pm 23:55 Clear 34 1.1 26 -3.5 72 72 WNW 8 13 30.12 1020 10 16.0934 0 0

Powered by AerisWeather